EN

Hourly Weather Barvinivka

Today, 18 January, Monday

Time Temperature Precipitation Wind Pressure Humidity
00:00 -15°C° 0.2 mm 5 mps 751 mmHg 93%
01:00 -15°C° 0.2 mm 4 mps 752 mmHg 93%
02:00 -17°C° 0 mm 5 mps 752 mmHg 90%
03:00 -16°C° 0 mm 4 mps 752 mmHg 92%
04:00 -16°C° 0 mm 3 mps 752 mmHg 93%
05:00 -16°C° 0 mm 3 mps 752 mmHg 94%
06:00 -16°C° 0 mm 3 mps 752 mmHg 94%
07:00 -16°C° 0 mm 3 mps 753 mmHg 94%
08:00 -16°C° 0 mm 3 mps 753 mmHg 94%
09:00 -14°C° 0 mm 2 mps 753 mmHg 92%
10:00 -13°C° 0 mm 2 mps 754 mmHg 89%
11:00 -13°C° 0 mm 2 mps 754 mmHg 87%
12:00 -12°C° 0 mm 2 mps 754 mmHg 86%
13:00 -12°C° 0 mm 2 mps 754 mmHg 85%
14:00 -12°C° 0 mm 2 mps 754 mmHg 84%
15:00 -13°C° 0 mm 2 mps 754 mmHg 86%
16:00 -14°C° 0 mm 2 mps 754 mmHg 87%
17:00 -14°C° 0 mm 2 mps 755 mmHg 89%
18:00 -15°C° 0 mm 2 mps 755 mmHg 89%
19:00 -15°C° 0 mm 2 mps 755 mmHg 89%
20:00 -15°C° 0 mm 2 mps 755 mmHg 89%
21:00 -15°C° 0 mm 2 mps 755 mmHg 89%
22:00 -16°C° 0 mm 2 mps 755 mmHg 90%
23:00 -16°C° 0 mm 2 mps 756 mmHg 90%

Tomorrow, 19 January, Tuesday

Time Temperature Precipitation Wind Pressure Humidity
00:00 -16°C° 0 mm 2 mps 756 mmHg 90%
01:00 -15°C° 0 mm 2 mps 756 mmHg 90%
02:00 -15°C° 0 mm 2 mps 756 mmHg 91%
03:00 -16°C° 0 mm 2 mps 756 mmHg 92%
04:00 -16°C° 0 mm 2 mps 756 mmHg 92%
05:00 -17°C° 0 mm 2 mps 756 mmHg 93%
06:00 -17°C° 0 mm 2 mps 756 mmHg 93%
07:00 -18°C° 0 mm 3 mps 757 mmHg 93%
08:00 -18°C° 0 mm 3 mps 757 mmHg 93%
09:00 -17°C° 0 mm 3 mps 757 mmHg 90%
10:00 -15°C° 0 mm 2 mps 757 mmHg 86%
11:00 -14°C° 0 mm 2 mps 758 mmHg 83%
12:00 -15°C° 0 mm 3 mps 757 mmHg 82%
13:00 -14°C° 0 mm 3 mps 757 mmHg 82%
14:00 -14°C° 0 mm 3 mps 757 mmHg 81%
15:00 -15°C° 0 mm 3 mps 757 mmHg 84%
16:00 -14°C° 0 mm 2 mps 757 mmHg 87%
17:00 -15°C° 0 mm 2 mps 758 mmHg 90%
18:00 -15°C° 0 mm 2 mps 758 mmHg 90%
19:00 -15°C° 0 mm 2 mps 758 mmHg 91%
20:00 -15°C° 0 mm 2 mps 758 mmHg 91%
21:00 -16°C° 0 mm 2 mps 758 mmHg 92%
22:00 -14°C° 0 mm 1 mps 758 mmHg 92%
23:00 -14°C° 0 mm 1 mps 759 mmHg 93%

Day after tomorrow, 20 January, Wednesday

Time Temperature Precipitation Wind Pressure Humidity
00:00 -14°C° 0 mm 1 mps 759 mmHg 92%
01:00 -14°C° 0 mm 1 mps 759 mmHg 92%
02:00 -16°C° 0 mm 2 mps 759 mmHg 92%
03:00 -15°C° 0 mm 1 mps 759 mmHg 92%
04:00 -15°C° 0 mm 1 mps 759 mmHg 92%
05:00 -15°C° 0 mm 1 mps 759 mmHg 92%
06:00 -15°C° 0 mm 1 mps 759 mmHg 91%
07:00 -15°C° 0 mm 1 mps 759 mmHg 91%
08:00 -15°C° 0 mm 1 mps 759 mmHg 90%
09:00 -13°C° 0 mm 1 mps 759 mmHg 87%
10:00 -12°C° 0 mm 1 mps 760 mmHg 84%
11:00 -11°C° 0 mm 1 mps 760 mmHg 80%
12:00 -10°C° 0 mm 1 mps 759 mmHg 78%
13:00 -9°C° 0 mm 1 mps 759 mmHg 77%
14:00 -8°C° 0 mm 1 mps 759 mmHg 75%
15:00 -9°C° 0 mm 1 mps 759 mmHg 78%
16:00 -12°C° 0 mm 2 mps 759 mmHg 80%
17:00 -13°C° 0 mm 2 mps 760 mmHg 83%
18:00 -13°C° 0 mm 2 mps 760 mmHg 84%
19:00 -14°C° 0 mm 3 mps 760 mmHg 84%
20:00 -14°C° 0 mm 3 mps 760 mmHg 84%
21:00 -13°C° 0 mm 3 mps 760 mmHg 85%
22:00 -13°C° 0 mm 3 mps 760 mmHg 86%
23:00 -13°C° 0 mm 3 mps 760 mmHg 87%

21 January, Thursday

Time Temperature Precipitation Wind Pressure Humidity
00:00 -12°C° 0 mm 4 mps 760 mmHg 89%
01:00 -11°C° 0 mm 4 mps 760 mmHg 91%
02:00 -11°C° 0 mm 4 mps 760 mmHg 93%
03:00 -10°C° 0 mm 4 mps 759 mmHg 93%
04:00 -10°C° 0 mm 4 mps 759 mmHg 94%
05:00 -9°C° 0 mm 4 mps 759 mmHg 95%
06:00 -8°C° 0 mm 5 mps 759 mmHg 95%
07:00 -8°C° 0 mm 5 mps 759 mmHg 95%
08:00 -7°C° 0 mm 5 mps 760 mmHg 95%
09:00 -5°C° 0 mm 5 mps 760 mmHg 95%
10:00 -4°C° 0 mm 5 mps 760 mmHg 96%
11:00 -2°C° 0 mm 5 mps 760 mmHg 96%
12:00 -2°C° 0 mm 5 mps 759 mmHg 96%
13:00 -1°C° 0 mm 5 mps 759 mmHg 96%
14:00 -1°C° 0 mm 5 mps 759 mmHg 97%
15:00 -1°C° 0 mm 5 mps 759 mmHg 96%
16:00 -1°C° 0 mm 5 mps 759 mmHg 96%
17:00 -1°C° 0 mm 5 mps 759 mmHg 95%
18:00 -1°C° 0 mm 5 mps 759 mmHg 96%
19:00 -1°C° 0 mm 5 mps 759 mmHg 96%
20:00 -1°C° 0 mm 5 mps 759 mmHg 96%
21:00 -1°C° 0 mm 5 mps 759 mmHg 97%
22:00 -1°C° 0 mm 4 mps 758 mmHg 97%
23:00 -1°C° 0 mm 4 mps 758 mmHg 98%

22 January, Friday

Time Temperature Precipitation Wind Pressure Humidity
00:00 -1°C° 0 mm 4 mps 758 mmHg 97%
01:00 -1°C° 0 mm 4 mps 758 mmHg 96%
02:00 -2°C° 0 mm 4 mps 758 mmHg 95%
03:00 -1°C° 0 mm 4 mps 758 mmHg 95%
04:00 -1°C° 0 mm 4 mps 758 mmHg 95%
05:00 -1°C° 0 mm 5 mps 757 mmHg 96%
06:00 -1°C° 0 mm 5 mps 758 mmHg 95%
07:00 -1°C° 0 mm 5 mps 758 mmHg 94%
08:00 -1°C° 0 mm 5 mps 758 mmHg 93%
09:00 0°C° 0 mm 5 mps 758 mmHg 94%
10:00 0°C° 0 mm 5 mps 757 mmHg 96%
11:00 +1°C° 0 mm 5 mps 757 mmHg 97%
12:00 +1°C° 0 mm 5 mps 757 mmHg 96%
13:00 +1°C° 0 mm 5 mps 757 mmHg 95%
14:00 +3°C° 0 mm 4 mps 756 mmHg 94%
15:00 +1°C° 0 mm 4 mps 756 mmHg 93%
16:00 +1°C° 0 mm 4 mps 756 mmHg 91%
17:00 +1°C° 0 mm 4 mps 756 mmHg 90%
18:00 +1°C° 0 mm 4 mps 756 mmHg 90%
19:00 +1°C° 0 mm 5 mps 756 mmHg 91%
20:00 +1°C° 0 mm 5 mps 755 mmHg 91%
21:00 +1°C° 0 mm 5 mps 755 mmHg 91%
22:00 +1°C° 0 mm 5 mps 755 mmHg 91%
23:00 +1°C° 0 mm 5 mps 755 mmHg 91%

23 January, Saturday

Time Temperature Precipitation Wind Pressure Humidity
00:00 +1°C° 0 mm 5 mps 754 mmHg 90%
01:00 +1°C° 0 mm 5 mps 754 mmHg 90%
02:00 +1°C° 0 mm 5 mps 754 mmHg 89%
03:00 +1°C° 0 mm 5 mps 754 mmHg 89%
04:00 +1°C° 0 mm 5 mps 753 mmHg 89%
05:00 +2°C° 0 mm 5 mps 753 mmHg 89%
06:00 +2°C° 0 mm 5 mps 753 mmHg 88%
07:00 +2°C° 0 mm 5 mps 753 mmHg 88%
08:00 +2°C° 0 mm 5 mps 753 mmHg 88%
09:00 +3°C° 0 mm 6 mps 753 mmHg 85%
10:00 +4°C° 0 mm 6 mps 753 mmHg 83%
11:00 +5°C° 0 mm 6 mps 752 mmHg 81%
12:00 +5°C° 0 mm 6 mps 752 mmHg 81%
13:00 +5°C° 0 mm 6 mps 752 mmHg 81%
14:00 +5°C° 0 mm 6 mps 751 mmHg 81%
15:00 +5°C° 0 mm 6 mps 751 mmHg 81%
16:00 +5°C° 0 mm 6 mps 751 mmHg 82%
17:00 +4°C° 0 mm 6 mps 751 mmHg 82%
18:00 +4°C° 0 mm 7 mps 751 mmHg 81%
19:00 +4°C° 0 mm 7 mps 751 mmHg 81%
20:00 +4°C° 0 mm 7 mps 751 mmHg 80%
21:00 +4°C° 0 mm 7 mps 751 mmHg 82%
22:00 +4°C° 0 mm 6 mps 750 mmHg 84%
23:00 +4°C° 0 mm 6 mps 750 mmHg 85%
Show more

We Need Your Consent

Meteoprog and our Service Providers may store and access personal data such as cookies, device identifiers or other similar technologies on your device and process such data to personalise content and ads, as well as provide social media features and to analyse the traffic.

  • Store and/or access information on your device

    Cookies, device identifiers or other information can be stored or accessed on your device for the purposes indicated above.

  • Personalised ads and content, ad and content measurement, audience insights, and products development

    Ads and content can be personalised based on a profile. More data can be added to better personalise ads and content. Ad and content performance can be measured. Insights about the audience who saw the ads and content can be derived. Such data can be used to develop or improve user’s experience, systems and software.

By clicking ‘I Agree’ you will allow the use of indicated cookies, device identifiers, web beacons or other similar technologies. Your settings can be changed in the browser on your device.

For certain purposes, legitimate interests may be relied on, rather than consent. You can read more about this in our Privacy and Cookie Policy.